Regional Weather Roundup
Issued by NWS Austin/San Antonio, TX

Current Version | Previous Version | Text Only | Print | Product List | Glossary On
Versions: 1 2 3 4 5 6 7 8 9 10 11 12 13 14 15 16 17 18 19 20 21 22 23 24 25 26 27 28 29 30 31 32 33 34 35 36 37 38 39 40 41 42 43 44 45 46 47 48 49 50
000
ASUS44 KEWX 131201
RWREWX
SOUTH TEXAS REGIONAL WEATHER ROUNDUP
NATIONAL WEATHER SERVICE AUSTIN/SAN ANTONIO TX
700 AM CDT SUN JUN 13 2021

NOTE: "FAIR" INDICATED FEW OR NO CLOUDS BELOW 12,000 FEET WITH NO
SIGNIFICANT WEATHER AND/OR OBSTRUCTIONS TO VISIBILITY.

* - THESE STATIONS ARE NOT NWS OR FAA STATIONS...AND ARE NOT SUBJECT
    TO NWS AND FAA QUALITY CONTROL.

TXZ171-172-183>190-131300-
TEXAS HILL COUNTRY AND EDWARDS PLATEAU

CITY           SKY/WX    TMP DP  RH WIND       PRES   REMARKS
JUNCTION       NOT AVBL
*LLANO         CLEAR     68  68 100 CALM      30.00S
BURNET         NOT AVBL
*HORSESHOE BAY PTCLDY    70  69  94 CALM      30.02R
*LAGO VISTA    CLEAR     74  71  89 SW3       30.03R
*KERRVILLE     CLEAR     72  68  89 CALM      30.03R
*FREDERICKSBRG MOCLDY   N/A N/A N/A CALM      30.04R
*ROCKSPRINGS     N/A     70  68  94 MISG      30.10R
*BOERNE        MOCLDY    70  70 100 SW3       30.03R
*CASTROVILLE   MOCLDY    75  74  97 CALM      30.01R
HONDO          NOT AVBL
*UVALDE        CLEAR     71  71 100 NE6       30.01R
DEL RIO        NOT AVBL
*LAUGHLIN AFB  NOT AVBL
*SPOFFORD      CLEAR     72  72 100 CALM      29.93R
6HR MIN TEMP:  72; 6HR MAX TEMP:  81;

*EAGLE PASS    CLEAR     73  70  88 E3        29.96R
CARRIZO SPRGS  CLEAR    N/A N/A N/A CALM      29.95R
$$

TXZ173-191>194-202-209-217>225-228-131300-
CENTRAL AND SOUTH CENTRAL TEXAS

CITY           SKY/WX    TMP DP  RH WIND       PRES   REMARKS
GEORGETOWN     NOT AVBL
*TAYLOR        CLEAR     73 N/A N/A CALM      29.99R
AUSTIN/BERGSTM NOT AVBL
AUSTIN/MABRY   CLEAR     75  71  87 CALM      30.00S
6HR MIN TEMP:  75; 6HR MAX TEMP:  79;

*PFLUGERVILLE  CLEAR     73  73 100 CALM      29.98S FOG
SAN MARCOS     PTCLDY    73  73 100 S5        30.01R
NEW BRAUNFELS  CLOUDY    73  71  93 SE5       29.99R FOG
*RANDOLPH AFB  CLEAR     72  72  99 CALM      29.99R
6HR MIN TEMP:  72; 6HR MAX TEMP:  78;

*SEGUIN        PTCLDY    73  73 100 CALM      30.04R
SAN ANTONIO    NOT AVBL
STINSON FIELD  NOT AVBL
*KELLY FIELD   CLOUDY    75  73  94 CALM      29.98R
6HR MIN TEMP:  72; 6HR MAX TEMP:  77;

*PLEASANTON    CLOUDY    76  74  93 SW3       29.98R
*KENEDY        CLOUDY    76  74  96 S3        29.99R FOG
*LA GRANGE     CLOUDY    77  77 100 CALM      29.97R
*GIDDINGS      CLEAR     76  74  94 CALM      29.99S FOG
*GONZALES      PTCLDY    76  76 100 CALM      29.99R
$$

TXZ163>164-176>182-195>201-210>213-226-227-235-131300-
SOUTHEAST TEXAS

CITY           SKY/WX    TMP DP  RH WIND       PRES   REMARKS
COLLEGE STN    NOT AVBL
*BRYAN         CLEAR     76  76 100 CALM      29.99S
*CALDWELL      PTCLDY    76  74  95 SW3       29.99R
*CROCKETT      CLEAR     73  73 100 CALM      29.97R FOG
*BRENHAM       PTCLDY    76  76  97 CALM      29.99R
HUNTSVILLE     NOT AVBL
CONROE         NOT AVBL
HOUSTON BUSH   NOT AVBL
HOUSTON HOBBY  NOT AVBL
*HOUSTON SW AP CLOUDY    78  76  95 CALM      29.97R
PEARLAND       NOT AVBL
HOUSTON HOOKS  NOT AVBL
ELLINGTON FLD  NOT AVBL
SUGAR LAND     NOT AVBL
*HOUSTON EXEC    N/A     79  79 100 CALM      29.98R
*CLEVELAND MUN CLOUDY    77  76  96 CALM      29.97R
*WHARTON       PTCLDY    76  74  94 SW3       29.97R
*COLUMBUS      FAIR      75  74  98 CALM      29.99R
*EAGLE LAKE    CLEAR     78  76  94 CALM      29.97
$$

TXZ214>216-236>238-131300-
THE UPPER TEXAS COAST

CITY           SKY/WX    TMP DP  RH WIND       PRES   REMARKS
*ORANGE        CLOUDY    80  76  90 CALM      29.97R
PORT ARTHUR    NOT AVBL
GALVESTON      NOT AVBL
ANGLETON       NOT AVBL
*BAY CITY      NOT AVBL
PALACIOS       NOT AVBL
$$

TXZ229>234-239>247-131300-
TEXAS COASTAL BEND AND RIO GRANDE PLAINS

CITY           SKY/WX    TMP DP  RH WIND       PRES   REMARKS
VICTORIA       FOG       77  75  93 NW5       29.97R VSB 1/2
*BEEVILLE      FOG       73  73 100 CALM      29.96R VSB<1/4
ROCKPORT       NOT AVBL
*PORT ARANSAS  PTCLDY    80  76  89 SW5       29.97R
*PORT LAVACA   PTCLDY    76  73  91 CALM      29.97R
*INGLESIDE     NOT AVBL
CORPUS CHRISTI PTCLDY    72  72 100 N3        29.95R FOG
CORPUS NAS     CLEAR     79  76  90 CALM      29.95R
6HR MIN TEMP:  78; 6HR MAX TEMP:  83;

*ROBSTOWN      PTCLDY    76  75  98 CALM      29.96R FOG
ALICE          FOG       75  75 100 CALM      29.95R VSB 1/2
KINGSVILLE NAS FOG       73  72  96 N3        29.95R VSB 1/4
6HR MIN TEMP:  73; 6HR MAX TEMP:  79;

COTULLA        NOT AVBL
LAREDO         NOT AVBL
$$

TXZ248>255-131300-
DEEP SOUTH TEXAS

CITY           SKY/WX    TMP DP  RH WIND       PRES   REMARKS
BROWNSVILLE    NOT AVBL
PORT ISABEL    NOT AVBL
HARLINGEN      NOT AVBL
*HEBBRONVILLE  HAZE      72  67  84 CALM      29.97R VSB 1/2
MCALLEN        NOT AVBL
*WESLACO       MOCLDY    74  73  95 CALM      29.92
FALFURRIAS     CLOUDY    70  70 100 CALM      29.93S VSB 3/4
EDINBURG       PTCLDY    72  72 100 CALM      29.94R FOG
*ZAPATA        CLEAR     75  73  94 NE3       29.95S
$$

TXZ213>215-236>238-242>244-246-247-251-254-255-131300-
CMAN STATIONS

STATION/POSITION TIME  TEMP    WIND        PRES    WAVE
                       AIR SEA DIR/SP/G            HT/PER
                 (UTC) (F)     (DEG/KT/KT) (MB)    (FT/S)
NORTH JETTY/GLS  1130   83 83  270/ 10/ 12 1013.2
EAGLE POINT      1130   79 87  260/  3/  5 1013.9
MORGANS POINT    1130   81 84  250/  7/ 10 1014.3
MISSION/ARANSAS  1100   81     190/  3     1015.0
PORT O`CONNOR    1130   80 87  310/  2/  3 1014.0
PORT ARANSAS     1100   80 84  200/  6/  7 1013.6
MALAQUITE BEACH  1130   80     170/  4/  5   N/A
BAFFIN BAY       1130   80 85  180/  3/  7 1013.4
PORT ISABEL      1130   78 82  220/  3/  4 1014.0
$$



USA.gov is the U.S. government's official web portal to all federal, state and local government web resources and services.